This is the latest recevied weather packets stored in our database for station/object IU2GZQ-13. If no packets are shown the sender has not sent any weather packets the latest 10 day(s).
| Time | Temp. | Humidity | Pressure | Rain* | Wind** | Luminosity | Snow |
|---|---|---|---|---|---|---|---|
| 1778173221 | 22.78° C | 50% | 1013 hPa | 0 mm | - | - | - |
| 1778172637 | 22.22° C | 49% | 1012.9 hPa | 0 mm | - | - | - |
| 1778172054 | 22.22° C | 46% | 1012.9 hPa | 0 mm | - | - | - |
| 1778171512 | 23.33° C | 48% | 1012.9 hPa | 0 mm | - | - | - |
| 1778170849 | 22.78° C | 47% | 1012.8 hPa | 0 mm | - | - | - |
| 1778170246 | 22.78° C | 46% | 1012.9 hPa | 0 mm | - | - | - |
| 1778169663 | 23.33° C | 46% | 1013 hPa | 0 mm | - | - | - |
| 1778169020 | 22.78° C | 45% | 1013.1 hPa | 0 mm | - | - | - |
| 1778168436 | 23.89° C | 45% | 1013.1 hPa | 0 mm | - | - | - |
| 1778167929 | 23.33° C | 44% | 1012.9 hPa | 0 mm | - | - | - |
| 1778167266 | 23.89° C | 45% | 1013.1 hPa | 0 mm | - | - | - |
| 1778166683 | 23.89° C | 45% | 1013 hPa | 0 mm | - | - | - |
| 1778166020 | 24.44° C | 45% | 1012.9 hPa | 0 mm | - | - | - |
| 1778165417 | 23.89° C | 45% | 1013 hPa | 0 mm | - | - | - |
| 1778164860 | 23.33° C | 44% | 1012.9 hPa | 0 mm | - | - | - |
| 1778164256 | 23.89° C | 44% | 1013.1 hPa | 0 mm | - | - | - |
| 1778163632 | 23.89° C | 45% | 1013 hPa | 0 mm | - | - | - |
| 1778163030 | 23.33° C | 45% | 1012.9 hPa | 0 mm | - | - | - |
| 1778162427 | 23.89° C | 46% | 1013.1 hPa | 0 mm | - | - | - |
| 1778161821 | 23.33° C | 46% | 1013.1 hPa | 0 mm | - | - | - |
| 1778161318 | 23.33° C | 45% | 1013.2 hPa | 0 mm | - | - | - |
| 1778160635 | 23.89° C | 46% | 1013.4 hPa | 0 mm | - | - | - |
| 1778160032 | 23.89° C | 47% | 1013.4 hPa | 0 mm | - | - | - |
| 1778159430 | 22.78° C | 47% | 1013.5 hPa | 0 mm | - | - | - |
| 1778158907 | 22.22° C | 49% | 1013.4 hPa | 0 mm | - | - | - |
* Rain latest hour (hover to see other rain measurements)
** Current wind speed in m/s (hover to see current wind gust speed)